Starlink 31030

operational
NORAD ID: 58542 Int'l Des: 2023-192 Owner: SPXS Country: US Constellation: starlink
LEOCIRCULAR

关于 Starlink 31030

正在加载描述...

实时位置

正在加载3D地球...

即将过境

高度历史

Altitude vs Time

uPlot chart will show altitude changes over time

两行轨道根数

1 58542U 23192M 25258.45168658 -.00002410 00000-0 -69321-4 0 9990
2 58542 53.1606 156.8442 0001602 92.0060 268.1124 15.30176269 99151
Epoch: Sep 15, 2025 • Age: 23 hours

当前状态

高度 481.2 km
速度 7.62 km/s
星下点 -19.26°S, 12.13°W
发射日期 Dec 8, 2023
运行时间 1.7 years
类型 internet

技术详情

分类 Payload
质量 730.00 kg
干质量 700.00 kg
总质量 730.00 kg
长度 0.30 m
直径 4.10 m
跨度 29.00 m
形状 Box + pan
制造商 SPXS
平台类型 Starlink V2M
阶段状态 In Orbit
所有者/国家 SPXS/US

大型星座

Loading constellations...